KROZINGEN Weather Reports


Display with metric or nautical units.
time (UTC)temp
F
wind
direction
speed
MPH
gust
MPH
rain 1hr
in
rain 24hr
in
rain mn
in
humidity
%
barometer
mb
20260507153210 62 19 6.0 0.0 0.00 0.00 0.24 66 1015.3
20260507150210 62 78 6.0 0.0 0.00 0.00 0.24 65 1015.3
20260507143212 62 5 10.0 0.0 0.00 0.00 0.24 68 1015.5
20260507140210 61 54 5.0 0.0 0.00 0.00 0.24 69 1015.6
20260507133210 60 166 10.0 0.0 0.00 0.00 0.24 74 1015.9
20260507130210 59 53 9.0 0.0 0.00 0.00 0.24 76 1015.8
20260507123210 57 18 6.0 0.0 0.00 0.00 0.24 78 1015.9
20260507120211 59 15 10.0 0.0 0.00 0.00 0.24 79 1015.7
20260507113210 58 321 3.0 0.0 0.00 0.00 0.24 73 1015.8
20260507110210 58 219 5.0 0.0 0.00 0.00 0.24 76 1015.8
20260507103216 58 248 4.0 0.0 0.00 0.00 0.24 78 1015.9
20260507100212 57 252 3.0 0.0 0.00 0.00 0.24 79 1015.8
20260507093210 56 274 4.0 0.0 0.00 0.00 0.24 81 1015.9
20260507090211 54 240 3.0 0.0 0.00 0.00 0.24 85 1015.7
20260507083212 53 274 2.0 0.0 0.00 0.00 0.24 91 1015.6
20260507080211 52 305 5.0 0.0 0.00 0.00 0.24 92 1015.4
20260507073212 51 210 3.0 0.0 0.00 0.00 0.24 95 1015.3
20260507070212 51 229 2.0 0.0 0.00 0.00 0.24 95 1015.0
20260507063211 50 283 3.0 0.0 0.00 0.00 0.24 96 1015.0
20260507060211 50 197 3.0 0.0 0.00 0.00 0.23 96 1014.7
20260507053211 50 228 3.0 0.0 0.00 0.00 0.22 96 1014.5
20260507050213 49 279 2.0 0.0 0.00 0.00 0.22 96 1014.0
20260507043211 49 133 4.0 0.0 0.00 0.00 0.21 96 1013.7
20260507040216 49 150 3.0 0.0 0.00 0.00 0.21 96 1013.5
20260507033211 49 133 5.0 0.0 0.00 0.00 0.20 96 1013.3
20260507030211 49 209 8.0 0.0 0.00 0.00 0.18 96 1013.1
20260507023211 49 210 8.0 0.0 0.00 0.00 0.15 96 1012.9
20260507020211 49 172 8.0 0.0 0.00 0.00 0.12 95 1012.7
20260507013212 49 239 4.0 0.0 0.00 0.00 0.09 95 1012.5
20260507010211 49 226 6.0 0.0 0.00 0.00 0.07 95 1012.4
20260507003209 49 244 10.0 0.0 0.00 0.00 0.06 94 1012.3
20260507000209 49 147 6.0 0.0 0.00 0.00 0.06 94 1012.4
20260506233209 49 158 5.0 0.0 0.00 0.00 0.03 94 1012.6
20260506230209 49 311 8.0 0.0 0.00 0.00 0.02 94 1012.5
20260506223209 49 245 3.0 0.0 0.00 0.00 0.01 94 1012.4
20260506220209 49 79 14.0 0.0 0.00 0.00 0.44 93 1012.1
20260506213209 49 303 12.0 0.0 0.00 0.00 0.43 94 1011.9
20260506210210 50 103 6.0 0.0 0.00 0.00 0.43 95 1011.8
20260506203210 50 238 5.0 0.0 0.00 0.00 0.40 95 1011.7
20260506200210 50 139 5.0 0.0 0.00 0.00 0.37 95 1011.4
20260506193215 50 171 4.0 0.0 0.00 0.00 0.33 95 1011.1
20260506190211 50 187 12.0 0.0 0.00 0.00 0.30 94 1010.8
20260506183209 51 224 6.0 0.0 0.00 0.00 0.26 94 1010.6
20260506180216 51 245 3.0 0.0 0.00 0.00 0.21 94 1010.2
20260506173210 51 216 10.0 0.0 0.00 0.00 0.18 94 1009.8
20260506170215 52 129 5.0 0.0 0.00 0.00 0.14 93 1009.5
20260506163210 52 172 9.0 0.0 0.00 0.00 0.10 91 1009.5
20260506160210 52 212 5.0 0.0 0.00 0.00 0.07 90 1009.4